Time,TemperatureF,DewpointF,PressureIn,WindDirection,WindDirectionDegrees,WindSpeedMPH,WindSpeedGustMPH,Humidity,HourlyPrecipIn,Conditions,Clouds,dailyrainin,SoftwareType,DateUTC
2013-04-23 00:01:00,42.3,34.9,30.39,SSE,168,0.0,0.0,75,0.00,,,0.00,Wunderground v.1.15,2013-04-23 04:01:00,
2013-04-23 00:02:00,42.3,34.9,30.39,SSE,168,0.0,0.0,75,0.00,,,0.00,Wunderground v.1.15,2013-04-23 04:02:00,
2013-04-23 00:07:00,42.1,35.0,30.39,SSE,168,0.0,0.0,75,0.00,,,0.00,weatherlink.com 1.10,2013-04-23 04:07:00,
2013-04-23 00:09:00,42.1,34.7,30.39,SSE,168,0.0,0.0,75,0.00,,,0.00,Wunderground v.1.15,2013-04-23 04:09:00,
2013-04-23 00:11:00,42.0,34.6,30.39,SSE,168,0.0,0.0,75,0.00,,,0.00,Wunderground v.1.15,2013-04-23 04:11:00,
2013-04-23 00:17:00,41.9,34.6,30.39,SSE,168,0.0,0.0,75,0.00,,,0.00,Wunderground v.1.15,2013-04-23 04:17:00,
2013-04-23 00:22:00,41.8,34.5,30.39,SSE,168,0.0,0.0,75,0.00,,,0.00,Wunderground v.1.15,2013-04-23 04:22:00,
2013-04-23 00:27:00,41.6,34.6,30.39,SSE,168,0.0,0.0,76,0.00,,,0.00,Wunderground v.1.15,2013-04-23 04:27:00,
2013-04-23 00:32:00,41.4,34.4,30.39,SSE,168,0.0,0.0,76,0.00,,,0.00,Wunderground v.1.15,2013-04-23 04:32:00,
2013-04-23 00:38:00,41.3,34.6,30.39,SSE,168,0.0,0.0,77,0.00,,,0.00,Wunderground v.1.15,2013-04-23 04:38:00,
2013-04-23 00:43:00,41.1,34.4,30.39,SSE,168,0.0,0.0,77,0.00,,,0.00,Wunderground v.1.15,2013-04-23 04:43:00,
2013-04-23 00:48:00,41.0,34.3,30.39,SSE,168,0.0,0.0,77,0.00,,,0.00,Wunderground v.1.15,2013-04-23 04:48:00,
2013-04-23 00:53:00,40.9,34.2,30.38,SSE,168,0.0,0.0,77,0.00,,,0.00,Wunderground v.1.15,2013-04-23 04:53:00,
2013-04-23 00:58:00,40.8,34.5,30.38,SSE,168,0.0,0.0,78,0.00,,,0.00,Wunderground v.1.15,2013-04-23 04:58:00,
2013-04-23 01:04:00,40.7,34.4,30.38,SSE,168,0.0,0.0,78,0.00,,,0.00,Wunderground v.1.15,2013-04-23 05:04:00,
2013-04-23 01:10:00,40.6,34.3,30.38,SSE,168,0.0,0.0,78,0.00,,,0.00,Wunderground v.1.15,2013-04-23 05:10:00,
2013-04-23 01:15:00,40.5,34.2,30.38,SSE,168,0.0,0.0,78,0.00,,,0.00,Wunderground v.1.15,2013-04-23 05:15:00,
2013-04-23 01:20:00,40.4,34.4,30.38,SSE,168,0.0,0.0,79,0.00,,,0.00,Wunderground v.1.15,2013-04-23 05:20:00,
2013-04-23 01:25:00,40.3,34.3,30.38,SSE,168,0.0,0.0,79,0.00,,,0.00,Wunderground v.1.15,2013-04-23 05:25:00,
2013-04-23 01:30:00,40.2,34.2,30.38,SSE,168,0.0,0.0,79,0.00,,,0.00,Wunderground v.1.15,2013-04-23 05:30:00,
2013-04-23 01:35:00,40.2,34.2,30.37,SSE,168,0.0,0.0,79,0.00,,,0.00,Wunderground v.1.15,2013-04-23 05:35:00,
2013-04-23 01:40:00,40.1,34.1,30.37,SSE,168,0.0,0.0,79,0.00,,,0.00,Wunderground v.1.15,2013-04-23 05:40:00,
2013-04-23 01:45:00,40.1,34.1,30.37,SSE,168,0.0,0.0,79,0.00,,,0.00,Wunderground v.1.15,2013-04-23 05:45:00,
2013-04-23 01:50:00,40.1,34.1,30.37,SSE,168,0.0,0.0,79,0.00,,,0.00,Wunderground v.1.15,2013-04-23 05:50:00,
2013-04-23 01:55:00,40.0,34.0,30.36,SSE,168,0.0,1.0,79,0.00,,,0.00,Wunderground v.1.15,2013-04-23 05:55:00,
2013-04-23 02:00:00,39.9,33.9,30.36,SSE,168,0.0,0.0,79,0.00,,,0.00,Wunderground v.1.15,2013-04-23 06:00:00,
2013-04-23 02:06:00,39.7,33.7,30.36,SSE,168,0.0,0.0,79,0.00,,,0.00,Wunderground v.1.15,2013-04-23 06:06:00,
2013-04-23 02:11:00,39.5,33.8,30.36,SSE,168,0.0,0.0,80,0.00,,,0.00,Wunderground v.1.15,2013-04-23 06:11:00,
2013-04-23 02:17:00,39.4,33.7,30.36,SSE,168,0.0,0.0,80,0.00,,,0.00,Wunderground v.1.15,2013-04-23 06:17:00,
2013-04-23 02:22:00,39.3,33.6,30.36,SSE,168,0.0,0.0,80,0.00,,,0.00,Wunderground v.1.15,2013-04-23 06:22:00,
2013-04-23 02:27:00,39.2,33.5,30.36,SSE,168,0.0,0.0,80,0.00,,,0.00,Wunderground v.1.15,2013-04-23 06:27:00,
2013-04-23 02:33:00,39.1,33.8,30.35,SSE,168,0.0,0.0,81,0.00,,,0.00,Wunderground v.1.15,2013-04-23 06:33:00,
2013-04-23 02:38:00,38.9,33.6,30.35,SSE,168,0.0,0.0,81,0.00,,,0.00,Wunderground v.1.15,2013-04-23 06:38:00,
2013-04-23 02:43:00,38.8,33.5,30.35,SSE,168,0.0,0.0,81,0.00,,,0.00,Wunderground v.1.15,2013-04-23 06:43:00,
2013-04-23 02:48:00,38.5,33.5,30.34,SSE,168,0.0,0.0,82,0.00,,,0.00,Wunderground v.1.15,2013-04-23 06:48:00,
2013-04-23 02:53:00,38.4,33.4,30.34,SSE,168,0.0,0.0,82,0.00,,,0.00,Wunderground v.1.15,2013-04-23 06:53:00,
2013-04-23 02:58:00,38.3,33.3,30.34,SSE,168,0.0,1.0,82,0.00,,,0.00,Wunderground v.1.15,2013-04-23 06:58:00,
2013-04-23 03:04:00,38.2,33.5,30.34,SSE,168,0.0,0.0,83,0.00,,,0.00,Wunderground v.1.15,2013-04-23 07:04:00,
2013-04-23 03:10:00,38.1,33.0,30.33,SSE,168,0.0,1.0,83,0.00,,,0.00,weatherlink.com 1.10,2013-04-23 07:10:00,
2013-04-23 03:15:00,38.1,33.4,30.33,SSE,168,0.0,0.0,83,0.00,,,0.00,Wunderground v.1.15,2013-04-23 07:15:00,
2013-04-23 03:21:00,38.1,33.4,30.33,SSE,168,0.0,0.0,83,0.00,,,0.00,Wunderground v.1.15,2013-04-23 07:21:00,
2013-04-23 03:26:00,38.1,33.4,30.33,SSE,168,0.0,1.0,83,0.00,,,0.00,Wunderground v.1.15,2013-04-23 07:26:00,
2013-04-23 03:31:00,38.1,33.4,30.34,SSE,168,0.0,0.0,83,0.00,,,0.00,Wunderground v.1.15,2013-04-23 07:31:00,
2013-04-23 03:36:00,38.0,33.3,30.33,SSE,168,0.0,0.0,83,0.00,,,0.00,Wunderground v.1.15,2013-04-23 07:36:00,
2013-04-23 03:41:00,37.9,33.2,30.33,SSE,168,0.0,0.0,83,0.00,,,0.00,Wunderground v.1.15,2013-04-23 07:41:00,
2013-04-23 03:46:00,37.8,33.1,30.33,SSE,168,0.0,0.0,83,0.00,,,0.00,Wunderground v.1.15,2013-04-23 07:46:00,
2013-04-23 03:51:00,37.7,33.0,30.33,SSE,168,0.0,0.0,83,0.00,,,0.00,Wunderground v.1.15,2013-04-23 07:51:00,
2013-04-23 03:57:00,37.6,32.9,30.33,SSE,168,0.0,0.0,83,0.00,,,0.00,Wunderground v.1.15,2013-04-23 07:57:00,
2013-04-23 04:04:00,37.5,32.8,30.33,SSE,168,0.0,0.0,83,0.00,,,0.00,Wunderground v.1.15,2013-04-23 08:04:00,
2013-04-23 04:10:00,37.3,33.0,30.33,SSE,168,0.0,0.0,83,0.00,,,0.00,weatherlink.com 1.10,2013-04-23 08:10:00,
2013-04-23 04:15:00,37.3,32.9,30.33,SSE,168,0.0,0.0,84,0.00,,,0.00,Wunderground v.1.15,2013-04-23 08:15:00,
2013-04-23 04:21:00,37.1,32.7,30.33,SSE,168,0.0,0.0,84,0.00,,,0.00,Wunderground v.1.15,2013-04-23 08:21:00,
2013-04-23 04:26:00,37.1,32.7,30.33,SSE,168,0.0,0.0,84,0.00,,,0.00,Wunderground v.1.15,2013-04-23 08:26:00,
2013-04-23 04:32:00,37.1,32.7,30.33,SSE,168,0.0,0.0,84,0.00,,,0.00,Wunderground v.1.15,2013-04-23 08:32:00,
2013-04-23 04:37:00,37.0,32.6,30.33,SSE,168,0.0,0.0,84,0.00,,,0.00,Wunderground v.1.15,2013-04-23 08:37:00,
2013-04-23 04:43:00,36.9,32.5,30.33,SSE,168,0.0,0.0,84,0.00,,,0.00,Wunderground v.1.15,2013-04-23 08:43:00,
2013-04-23 04:48:00,36.9,32.8,30.33,SSE,168,0.0,0.0,85,0.00,,,0.00,Wunderground v.1.15,2013-04-23 08:48:00,
2013-04-23 04:54:00,37.0,32.9,30.33,SSE,168,0.0,0.0,85,0.00,,,0.00,Wunderground v.1.15,2013-04-23 08:54:00,
2013-04-23 04:59:00,37.3,33.2,30.33,SSE,168,0.0,0.0,85,0.00,,,0.00,Wunderground v.1.15,2013-04-23 08:59:00,
2013-04-23 05:04:00,37.6,33.2,30.33,SSE,168,0.0,1.0,84,0.00,,,0.00,Wunderground v.1.15,2013-04-23 09:04:00,
2013-04-23 05:10:00,37.8,33.1,30.33,SSE,168,1.0,1.0,83,0.00,,,0.00,Wunderground v.1.15,2013-04-23 09:10:00,
2013-04-23 05:15:00,37.9,33.2,30.32,SSE,168,1.0,1.0,83,0.00,,,0.00,Wunderground v.1.15,2013-04-23 09:15:00,
2013-04-23 05:20:00,37.9,33.2,30.32,SSE,168,0.0,0.0,83,0.00,,,0.00,Wunderground v.1.15,2013-04-23 09:20:00,
2013-04-23 05:26:00,37.9,33.2,30.32,SSE,168,0.0,0.0,83,0.00,,,0.00,Wunderground v.1.15,2013-04-23 09:26:00,
2013-04-23 05:31:00,37.8,33.1,30.32,SSE,168,0.0,1.0,83,0.00,,,0.00,Wunderground v.1.15,2013-04-23 09:31:00,
2013-04-23 05:36:00,37.6,32.9,30.32,SSE,168,0.0,1.0,83,0.00,,,0.00,Wunderground v.1.15,2013-04-23 09:36:00,
2013-04-23 05:41:00,37.4,32.7,30.32,SSE,168,0.0,0.0,83,0.00,,,0.00,Wunderground v.1.15,2013-04-23 09:41:00,
2013-04-23 05:46:00,37.2,32.8,30.32,SSE,168,0.0,1.0,84,0.00,,,0.00,Wunderground v.1.15,2013-04-23 09:46:00,
2013-04-23 05:51:00,37.1,32.7,30.32,SSE,168,0.0,0.0,84,0.00,,,0.00,Wunderground v.1.15,2013-04-23 09:51:00,
2013-04-23 05:57:00,37.0,32.6,30.32,SSE,168,0.0,1.0,84,0.00,,,0.00,Wunderground v.1.15,2013-04-23 09:57:00,
2013-04-23 06:04:00,36.9,32.5,30.32,SSE,168,0.0,0.0,84,0.00,,,0.00,Wunderground v.1.15,2013-04-23 10:04:00,
2013-04-23 06:09:00,36.8,32.4,30.32,SSE,168,0.0,0.0,84,0.00,,,0.00,Wunderground v.1.15,2013-04-23 10:09:00,
2013-04-23 06:15:00,36.7,32.6,30.32,SSE,168,0.0,0.0,85,0.00,,,0.00,Wunderground v.1.15,2013-04-23 10:15:00,
2013-04-23 06:20:00,36.6,32.5,30.32,SSE,168,0.0,0.0,85,0.00,,,0.00,Wunderground v.1.15,2013-04-23 10:20:00,
2013-04-23 06:25:00,36.5,32.4,30.32,SSE,168,0.0,0.0,85,0.00,,,0.00,Wunderground v.1.15,2013-04-23 10:25:00,
2013-04-23 06:30:00,36.4,32.3,30.31,SSE,168,0.0,0.0,85,0.00,,,0.00,Wunderground v.1.15,2013-04-23 10:30:00,
2013-04-23 06:35:00,36.4,32.3,30.31,SSE,168,0.0,1.0,85,0.00,,,0.00,Wunderground v.1.15,2013-04-23 10:35:00,
2013-04-23 06:40:00,36.3,32.2,30.31,SSE,168,0.0,0.0,85,0.00,,,0.00,Wunderground v.1.15,2013-04-23 10:40:00,
2013-04-23 06:45:00,36.3,32.2,30.32,SSE,168,0.0,0.0,85,0.00,,,0.00,Wunderground v.1.15,2013-04-23 10:45:00,
2013-04-23 06:50:00,36.2,32.4,30.32,SSE,168,0.0,1.0,86,0.00,,,0.00,Wunderground v.1.15,2013-04-23 10:50:00,
2013-04-23 06:56:00,36.3,33.0,30.32,SSE,168,0.0,2.0,86,0.00,,,0.00,weatherlink.com 1.10,2013-04-23 10:56:00,
2013-04-23 07:01:00,36.4,32.6,30.32,SSE,168,0.0,0.0,86,0.00,,,0.00,Wunderground v.1.15,2013-04-23 11:01:00,
2013-04-23 07:07:00,36.6,32.8,30.32,SSE,168,0.0,1.0,86,0.00,,,0.00,Wunderground v.1.15,2013-04-23 11:07:00,
2013-04-23 07:12:00,36.7,32.9,30.32,SSE,168,0.0,0.0,86,0.00,,,0.00,Wunderground v.1.15,2013-04-23 11:12:00,
2013-04-23 07:17:00,36.9,32.8,30.32,SSE,168,0.0,1.0,85,0.00,,,0.00,Wunderground v.1.15,2013-04-23 11:17:00,
2013-04-23 07:22:00,37.1,32.7,30.32,SSE,168,1.0,1.0,84,0.00,,,0.00,Wunderground v.1.15,2013-04-23 11:22:00,
2013-04-23 07:28:00,37.5,33.1,30.32,SSE,168,0.0,1.0,84,0.00,,,0.00,Wunderground v.1.15,2013-04-23 11:28:00,
2013-04-23 07:33:00,37.7,33.3,30.32,SSE,168,0.0,1.0,84,0.00,,,0.00,Wunderground v.1.15,2013-04-23 11:33:00,
2013-04-23 07:39:00,37.9,33.5,30.32,SSE,168,0.0,1.0,84,0.00,,,0.00,Wunderground v.1.15,2013-04-23 11:39:00,
2013-04-23 07:45:00,38.0,33.0,30.32,SSE,168,1.0,2.0,83,0.00,,,0.00,weatherlink.com 1.10,2013-04-23 11:45:00,
2013-04-23 07:50:00,38.0,33.3,30.32,SSE,168,1.0,1.0,83,0.00,,,0.00,Wunderground v.1.15,2013-04-23 11:50:00,
2013-04-23 07:56:00,38.3,33.6,30.32,SSE,168,0.0,1.0,83,0.00,,,0.00,Wunderground v.1.15,2013-04-23 11:56:00,
2013-04-23 08:02:00,38.8,34.4,30.32,SSE,168,0.0,1.0,84,0.00,,,0.00,Wunderground v.1.15,2013-04-23 12:02:00,
2013-04-23 08:07:00,39.1,34.4,30.32,SSE,168,0.0,1.0,83,0.00,,,0.00,Wunderground v.1.15,2013-04-23 12:07:00,
2013-04-23 08:12:00,39.4,34.7,30.32,SSE,168,0.0,1.0,83,0.00,,,0.00,Wunderground v.1.15,2013-04-23 12:12:00,
2013-04-23 08:17:00,39.8,35.4,30.32,SSE,168,0.0,1.0,84,0.00,,,0.00,Wunderground v.1.15,2013-04-23 12:17:00,
2013-04-23 08:22:00,40.2,35.4,30.32,SSE,168,1.0,1.0,83,0.00,,,0.00,Wunderground v.1.15,2013-04-23 12:22:00,
2013-04-23 08:27:00,40.6,36.0,30.32,SSE,168,0.0,2.0,83,0.00,,,0.00,weatherlink.com 1.10,2013-04-23 12:27:00,
2013-04-23 08:32:00,41.0,35.9,30.31,SSE,168,1.0,1.0,82,0.00,,,0.00,Wunderground v.1.15,2013-04-23 12:32:00,
2013-04-23 08:37:00,41.4,36.0,30.31,ENE,73,1.0,3.0,81,0.00,,,0.00,Wunderground v.1.15,2013-04-23 12:37:00,
2013-04-23 08:43:00,41.6,36.0,30.31,ENE,73,0.0,3.0,79,0.00,,,0.00,weatherlink.com 1.10,2013-04-23 12:43:00,
2013-04-23 08:48:00,41.9,36.8,30.31,ENE,73,1.0,3.0,82,0.00,,,0.00,Wunderground v.1.15,2013-04-23 12:48:00,
2013-04-23 08:53:00,42.2,36.8,30.31,ENE,73,1.0,2.0,81,0.00,,,0.00,Wunderground v.1.15,2013-04-23 12:53:00,
2013-04-23 08:59:00,42.4,36.3,30.31,ENE,73,1.0,2.0,79,0.00,,,0.00,Wunderground v.1.15,2013-04-23 12:59:00,
2013-04-23 09:04:00,42.5,36.4,30.30,ENE,73,1.0,2.0,79,0.00,,,0.00,Wunderground v.1.15,2013-04-23 13:04:00,
2013-04-23 09:10:00,42.8,36.7,30.31,ENE,73,1.0,1.0,79,0.00,,,0.00,Wunderground v.1.15,2013-04-23 13:10:00,
2013-04-23 09:16:00,43.3,37.5,30.30,ENE,73,1.0,3.0,80,0.00,,,0.00,Wunderground v.1.15,2013-04-23 13:16:00,
2013-04-23 09:21:00,43.5,37.4,30.30,ENE,73,2.0,2.0,79,0.00,,,0.00,Wunderground v.1.15,2013-04-23 13:21:00,
2013-04-23 09:27:00,43.7,37.9,30.30,ENE,72,2.0,2.0,80,0.00,,,0.00,Wunderground v.1.15,2013-04-23 13:27:00,
2013-04-23 09:32:00,43.7,37.6,30.30,ENE,72,1.0,2.0,79,0.00,,,0.00,Wunderground v.1.15,2013-04-23 13:32:00,
2013-04-23 09:38:00,44.1,38.0,30.30,ENE,72,1.0,2.0,79,0.00,,,0.00,Wunderground v.1.15,2013-04-23 13:38:00,
2013-04-23 09:43:00,44.2,38.4,30.29,ENE,72,1.0,4.0,80,0.00,,,0.00,Wunderground v.1.15,2013-04-23 13:43:00,
2013-04-23 09:48:00,44.2,38.1,30.29,ENE,72,2.0,4.0,79,0.00,,,0.00,Wunderground v.1.15,2013-04-23 13:48:00,
2013-04-23 09:53:00,44.1,38.0,30.28,ENE,72,2.0,3.0,79,0.00,,,0.00,Wunderground v.1.15,2013-04-23 13:53:00,
2013-04-23 09:59:00,44.0,38.2,30.28,ENE,72,2.0,3.0,80,0.00,,,0.00,Wunderground v.1.15,2013-04-23 13:59:00,
2013-04-23 10:04:00,44.2,38.1,30.28,NE,53,2.0,4.0,79,0.00,,,0.00,Wunderground v.1.15,2013-04-23 14:04:00,
2013-04-23 10:10:00,44.0,38.2,30.28,SE,130,2.0,2.0,80,0.00,,,0.00,Wunderground v.1.15,2013-04-23 14:10:00,
2013-04-23 10:16:00,44.2,39.1,30.28,SSE,167,2.0,2.0,82,0.00,,,0.00,Wunderground v.1.15,2013-04-23 14:16:00,
2013-04-23 10:21:00,44.5,38.7,30.28,NE,54,1.0,2.0,80,0.00,,,0.00,Wunderground v.1.15,2013-04-23 14:21:00,
2013-04-23 10:26:00,44.7,38.3,30.28,NE,56,1.0,3.0,78,0.00,,,0.00,Wunderground v.1.15,2013-04-23 14:26:00,
2013-04-23 10:31:00,44.8,38.7,30.28,NE,56,1.0,2.0,79,0.00,,,0.00,Wunderground v.1.15,2013-04-23 14:31:00,
2013-04-23 10:36:00,44.8,39.0,30.28,SE,136,2.0,3.0,80,0.00,,,0.00,Wunderground v.1.15,2013-04-23 14:36:00,
2013-04-23 10:42:00,44.8,38.4,30.28,ENE,63,2.0,3.0,78,0.00,,,0.00,Wunderground v.1.15,2013-04-23 14:42:00,
2013-04-23 10:47:00,44.9,39.4,30.27,ESE,105,2.0,3.0,81,0.00,,,0.00,Wunderground v.1.15,2013-04-23 14:47:00,
2013-04-23 10:52:00,44.9,38.8,30.27,ENE,68,2.0,2.0,79,0.00,,,0.00,Wunderground v.1.15,2013-04-23 14:52:00,
2013-04-23 10:58:00,45.1,39.0,30.27,SW,226,2.0,3.0,79,0.00,,,0.00,Wunderground v.1.15,2013-04-23 14:58:00,
2013-04-23 11:04:00,45.5,39.4,30.27,East,82,2.0,3.0,79,0.00,,,0.00,Wunderground v.1.15,2013-04-23 15:04:00,
2013-04-23 11:10:00,45.8,39.7,30.27,East,87,2.0,2.0,79,0.00,,,0.00,Wunderground v.1.15,2013-04-23 15:10:00,
2013-04-23 11:16:00,46.2,39.4,30.27,East,87,1.0,3.0,77,0.00,,,0.00,Wunderground v.1.15,2013-04-23 15:16:00,
2013-04-23 11:22:00,46.4,40.6,30.27,ESE,118,1.0,1.0,80,0.00,,,0.00,Wunderground v.1.15,2013-04-23 15:22:00,
2013-04-23 11:28:00,47.2,40.7,30.27,South,190,1.0,4.0,78,0.00,,,0.00,Wunderground v.1.15,2013-04-23 15:28:00,
2013-04-23 11:33:00,47.2,40.0,30.27,WSW,255,2.0,3.0,76,0.00,,,0.00,Wunderground v.1.15,2013-04-23 15:33:00,
2013-04-23 11:38:00,47.2,40.7,30.27,ENE,78,1.0,3.0,78,0.00,,,0.00,Wunderground v.1.15,2013-04-23 15:38:00,
2013-04-23 11:44:00,47.4,40.6,30.27,East,90,2.0,3.0,77,0.00,,,0.00,Wunderground v.1.15,2013-04-23 15:44:00,
2013-04-23 11:49:00,47.3,39.8,30.27,ENE,72,2.0,4.0,75,0.00,,,0.00,Wunderground v.1.15,2013-04-23 15:49:00,
2013-04-23 11:55:00,47.2,39.3,30.27,ENE,72,2.0,2.0,74,0.00,,,0.00,Wunderground v.1.15,2013-04-23 15:55:00,
2013-04-23 12:00:00,47.3,40.1,30.26,East,90,2.0,3.0,76,0.00,,,0.00,Wunderground v.1.15,2013-04-23 16:00:00,
2013-04-23 12:06:00,47.9,40.7,30.26,East,94,1.0,4.0,76,0.00,,,0.00,Wunderground v.1.15,2013-04-23 16:06:00,
2013-04-23 12:11:00,48.1,40.5,30.26,ENE,63,1.0,5.0,75,0.00,,,0.00,Wunderground v.1.15,2013-04-23 16:11:00,
2013-04-23 12:17:00,48.1,40.5,30.26,South,178,2.0,5.0,75,0.00,,,0.00,Wunderground v.1.15,2013-04-23 16:17:00,
2013-04-23 12:22:00,48.3,40.4,30.26,SSE,153,2.0,2.0,74,0.00,,,0.00,Wunderground v.1.15,2013-04-23 16:22:00,
2013-04-23 12:27:00,48.5,40.6,30.26,SSE,164,2.0,2.0,74,0.00,,,0.00,Wunderground v.1.15,2013-04-23 16:27:00,
2013-04-23 12:32:00,48.7,40.8,30.26,ENE,67,2.0,2.0,74,0.00,,,0.00,Wunderground v.1.15,2013-04-23 16:32:00,
2013-04-23 12:38:00,48.8,40.5,30.27,ENE,78,1.0,2.0,73,0.00,,,0.00,Wunderground v.1.15,2013-04-23 16:38:00,
2013-04-23 12:43:00,49.6,42.3,30.27,SSW,208,2.0,2.0,76,0.00,,,0.00,Wunderground v.1.15,2013-04-23 16:43:00,
2013-04-23 12:48:00,50.8,42.5,30.26,SSE,153,1.0,3.0,73,0.00,,,0.00,Wunderground v.1.15,2013-04-23 16:48:00,
2013-04-23 12:54:00,51.1,42.7,30.26,South,184,2.0,3.0,73,0.00,,,0.00,Wunderground v.1.15,2013-04-23 16:54:00,
2013-04-23 12:59:00,51.6,42.1,30.26,NE,53,2.0,4.0,70,0.00,,,0.00,Wunderground v.1.15,2013-04-23 16:59:00,
2013-04-23 13:04:00,52.0,43.3,30.26,SE,142,2.0,3.0,72,0.00,,,0.00,Wunderground v.1.15,2013-04-23 17:04:00,
2013-04-23 13:10:00,52.4,42.5,30.25,SE,141,2.0,2.0,69,0.00,,,0.00,Wunderground v.1.15,2013-04-23 17:10:00,
2013-04-23 13:15:00,52.0,42.1,30.24,East,80,2.0,6.0,69,0.00,,,0.00,Wunderground v.1.15,2013-04-23 17:15:00,
2013-04-23 13:20:00,51.7,43.7,30.23,East,79,3.0,3.0,74,0.00,,,0.00,Wunderground v.1.15,2013-04-23 17:20:00,
2013-04-23 13:25:00,51.6,42.1,30.24,ENE,65,3.0,5.0,70,0.00,,,0.00,Wunderground v.1.15,2013-04-23 17:25:00,
2013-04-23 13:31:00,51.3,43.0,30.25,ENE,78,2.0,8.0,72,0.00,,,0.00,weatherlink.com 1.10,2013-04-23 17:31:00,
2013-04-23 13:36:00,51.4,42.7,30.25,East,91,3.0,4.0,72,0.00,,,0.00,Wunderground v.1.15,2013-04-23 17:36:00,
2013-04-23 13:41:00,51.2,42.1,30.24,ENE,60,3.0,4.0,71,0.00,,,0.00,Wunderground v.1.15,2013-04-23 17:41:00,
2013-04-23 13:46:00,51.3,41.8,30.24,ENE,65,2.0,4.0,70,0.00,,,0.00,Wunderground v.1.15,2013-04-23 17:46:00,
2013-04-23 13:52:00,51.4,43.0,30.24,South,182,2.0,4.0,73,0.00,,,0.00,Wunderground v.1.15,2013-04-23 17:52:00,
2013-04-23 13:57:00,51.6,42.1,30.25,ENE,67,2.0,4.0,70,0.00,,,0.00,Wunderground v.1.15,2013-04-23 17:57:00,
2013-04-23 14:02:00,52.2,42.7,30.23,SSE,158,2.0,3.0,70,0.00,,,0.00,Wunderground v.1.15,2013-04-23 18:02:00,
2013-04-23 14:08:00,52.7,43.0,30.23,South,190,2.0,7.0,69,0.00,,,0.00,weatherlink.com 1.10,2013-04-23 18:08:00,
2013-04-23 14:13:00,53.5,44.3,30.23,ENE,61,2.0,2.0,71,0.00,,,0.00,Wunderground v.1.15,2013-04-23 18:13:00,
2013-04-23 14:18:00,54.4,44.4,30.21,East,82,2.0,5.0,69,0.00,,,0.00,Wunderground v.1.15,2013-04-23 18:18:00,
2013-04-23 14:23:00,54.7,45.5,30.22,SSE,162,2.0,4.0,71,0.00,,,0.00,Wunderground v.1.15,2013-04-23 18:23:00,
2013-04-23 14:28:00,55.2,44.4,30.22,NE,53,2.0,4.0,67,0.00,,,0.00,Wunderground v.1.15,2013-04-23 18:28:00,
2013-04-23 14:33:00,55.2,44.4,30.21,ESE,107,3.0,3.0,67,0.00,,,0.00,Wunderground v.1.15,2013-04-23 18:33:00,
2013-04-23 14:38:00,55.3,45.3,30.21,East,84,2.0,3.0,69,0.00,,,0.00,Wunderground v.1.15,2013-04-23 18:38:00,
2013-04-23 14:44:00,55.5,43.9,30.20,East,86,2.0,2.0,65,0.00,,,0.00,Wunderground v.1.15,2013-04-23 18:44:00,
2013-04-23 14:49:00,55.1,44.3,30.20,SE,145,3.0,5.0,67,0.00,,,0.00,Wunderground v.1.15,2013-04-23 18:49:00,
2013-04-23 14:54:00,55.1,44.3,30.20,East,86,3.0,4.0,67,0.00,,,0.00,Wunderground v.1.15,2013-04-23 18:54:00,
2013-04-23 14:59:00,55.5,44.3,30.20,ENE,63,2.0,4.0,66,0.00,,,0.00,Wunderground v.1.15,2013-04-23 18:59:00,
2013-04-23 15:04:00,55.7,44.9,30.19,ESE,122,2.0,3.0,67,0.00,,,0.00,Wunderground v.1.15,2013-04-23 19:04:00,
2013-04-23 15:10:00,56.2,44.2,30.19,South,169,2.0,3.0,64,0.00,,,0.00,Wunderground v.1.15,2013-04-23 19:10:00,
2013-04-23 15:16:00,56.1,43.3,30.19,East,84,3.0,7.0,62,0.00,,,0.00,Wunderground v.1.15,2013-04-23 19:16:00,
2013-04-23 15:21:00,56.0,43.6,30.19,SW,236,4.0,4.0,63,0.00,,,0.00,Wunderground v.1.15,2013-04-23 19:21:00,
2013-04-23 15:26:00,56.3,45.1,30.19,East,91,2.0,5.0,66,0.00,,,0.00,Wunderground v.1.15,2013-04-23 19:26:00,
2013-04-23 15:31:00,56.2,44.6,30.18,SE,138,3.0,3.0,65,0.00,,,0.00,Wunderground v.1.15,2013-04-23 19:31:00,
2013-04-23 15:36:00,56.9,45.7,30.18,ENE,69,3.0,4.0,66,0.00,,,0.00,Wunderground v.1.15,2013-04-23 19:36:00,
2013-04-23 15:41:00,56.8,44.7,30.18,NE,43,3.0,4.0,64,0.00,,,0.00,Wunderground v.1.15,2013-04-23 19:41:00,
2013-04-23 15:46:00,56.4,44.8,30.17,East,89,3.0,4.0,65,0.00,,,0.00,Wunderground v.1.15,2013-04-23 19:46:00,
2013-04-23 15:52:00,56.4,45.6,30.17,East,82,3.0,3.0,67,0.00,,,0.00,Wunderground v.1.15,2013-04-23 19:52:00,
2013-04-23 15:57:00,56.7,44.2,30.16,South,190,3.0,4.0,63,0.00,,,0.00,Wunderground v.1.15,2013-04-23 19:57:00,
2013-04-23 16:02:00,56.6,44.1,30.16,South,169,3.0,3.0,63,0.00,,,0.00,Wunderground v.1.15,2013-04-23 20:02:00,
2013-04-23 16:08:00,57.2,43.9,30.16,SSE,165,2.0,3.0,61,0.00,,,0.00,Wunderground v.1.15,2013-04-23 20:08:00,
2013-04-23 16:13:00,57.0,44.5,30.16,ENE,78,2.0,5.0,63,0.00,,,0.00,Wunderground v.1.15,2013-04-23 20:13:00,
2013-04-23 16:18:00,57.2,45.9,30.15,South,180,2.0,5.0,66,0.00,,,0.00,Wunderground v.1.15,2013-04-23 20:18:00,
2013-04-23 16:23:00,57.5,45.8,30.15,East,79,2.0,4.0,65,0.00,,,0.00,Wunderground v.1.15,2013-04-23 20:23:00,
2013-04-23 16:28:00,57.7,45.6,30.14,East,84,2.0,4.0,64,0.00,,,0.00,Wunderground v.1.15,2013-04-23 20:28:00,
2013-04-23 16:33:00,57.3,45.6,30.14,SE,140,2.0,3.0,65,0.00,,,0.00,Wunderground v.1.15,2013-04-23 20:33:00,
2013-04-23 16:39:00,57.3,44.4,30.15,ENE,68,3.0,3.0,62,0.00,,,0.00,Wunderground v.1.15,2013-04-23 20:39:00,
2013-04-23 16:44:00,57.3,44.8,30.15,NE,51,2.0,3.0,63,0.00,,,0.00,Wunderground v.1.15,2013-04-23 20:44:00,
2013-04-23 16:49:00,57.3,45.2,30.15,ENE,57,2.0,4.0,64,0.00,,,0.00,Wunderground v.1.15,2013-04-23 20:49:00,
2013-04-23 16:54:00,57.2,44.3,30.14,ENE,66,2.0,4.0,62,0.00,,,0.00,Wunderground v.1.15,2013-04-23 20:54:00,
2013-04-23 16:59:00,57.5,44.1,30.14,South,170,2.0,4.0,61,0.00,,,0.00,Wunderground v.1.15,2013-04-23 20:59:00,
2013-04-23 17:04:00,57.6,45.1,30.13,South,188,2.0,3.0,63,0.00,,,0.00,Wunderground v.1.15,2013-04-23 21:04:00,
2013-04-23 17:10:00,57.8,45.3,30.14,ENE,67,2.0,2.0,63,0.00,,,0.00,Wunderground v.1.15,2013-04-23 21:10:00,
2013-04-23 17:16:00,57.6,43.8,30.14,ENE,67,2.0,4.0,60,0.00,,,0.00,Wunderground v.1.15,2013-04-23 21:16:00,
2013-04-23 17:21:00,57.7,45.2,30.14,SE,127,2.0,2.0,63,0.00,,,0.00,Wunderground v.1.15,2013-04-23 21:21:00,
2013-04-23 17:26:00,58.0,44.6,30.14,South,188,1.0,4.0,61,0.00,,,0.00,Wunderground v.1.15,2013-04-23 21:26:00,
2013-04-23 17:31:00,58.1,44.7,30.14,SSW,199,2.0,2.0,61,0.00,,,0.00,Wunderground v.1.15,2013-04-23 21:31:00,
2013-04-23 17:37:00,58.1,44.3,30.14,South,180,2.0,3.0,60,0.00,,,0.00,Wunderground v.1.15,2013-04-23 21:37:00,
2013-04-23 17:42:00,58.3,45.3,30.14,East,79,1.0,2.0,62,0.00,,,0.00,Wunderground v.1.15,2013-04-23 21:42:00,
2013-04-23 17:47:00,58.3,44.5,30.14,SSW,194,2.0,3.0,60,0.00,,,0.00,Wunderground v.1.15,2013-04-23 21:47:00,
2013-04-23 17:53:00,58.1,44.7,30.14,ENE,74,2.0,3.0,61,0.00,,,0.00,Wunderground v.1.15,2013-04-23 21:53:00,
2013-04-23 17:58:00,57.9,45.0,30.14,ENE,70,2.0,3.0,62,0.00,,,0.00,Wunderground v.1.15,2013-04-23 21:58:00,
2013-04-23 18:04:00,57.4,44.5,30.14,ENE,77,2.0,2.0,62,0.00,,,0.00,Wunderground v.1.15,2013-04-23 22:04:00,
2013-04-23 18:10:00,57.2,44.7,30.14,South,174,2.0,2.0,63,0.00,,,0.00,Wunderground v.1.15,2013-04-23 22:10:00,
2013-04-23 18:15:00,57.0,44.5,30.14,SSW,196,2.0,3.0,63,0.00,,,0.00,Wunderground v.1.15,2013-04-23 22:15:00,
2013-04-23 18:20:00,56.8,44.7,30.13,SSE,151,2.0,2.0,64,0.00,,,0.00,Wunderground v.1.15,2013-04-23 22:20:00,
2013-04-23 18:25:00,56.7,44.7,30.13,ENE,58,2.0,2.0,64,0.00,,,0.00,Wunderground v.1.15,2013-04-23 22:25:00,
2013-04-23 18:30:00,56.5,44.0,30.13,ENE,77,2.0,4.0,63,0.00,,,0.00,Wunderground v.1.15,2013-04-23 22:30:00,
2013-04-23 18:35:00,56.4,44.0,30.13,South,190,2.0,4.0,63,0.00,,,0.00,Wunderground v.1.15,2013-04-23 22:35:00,
2013-04-23 18:41:00,56.2,44.6,30.12,SSW,196,2.0,2.0,65,0.00,,,0.00,Wunderground v.1.15,2013-04-23 22:41:00,
2013-04-23 18:46:00,55.9,44.7,30.12,ENE,76,2.0,2.0,66,0.00,,,0.00,Wunderground v.1.15,2013-04-23 22:46:00,
2013-04-23 18:51:00,55.8,45.0,30.12,ESE,110,1.0,1.0,67,0.00,,,0.00,Wunderground v.1.15,2013-04-23 22:51:00,
2013-04-23 18:56:00,55.5,44.3,30.12,East,85,1.0,3.0,66,0.00,,,0.00,Wunderground v.1.15,2013-04-23 22:56:00,
2013-04-23 19:02:00,55.2,44.8,30.12,East,85,1.0,2.0,68,0.00,,,0.00,Wunderground v.1.15,2013-04-23 23:02:00,
2013-04-23 19:08:00,54.9,44.5,30.12,ENE,78,1.0,2.0,68,0.00,,,0.00,Wunderground v.1.15,2013-04-23 23:08:00,
2013-04-23 19:13:00,54.8,44.8,30.12,ENE,78,1.0,1.0,69,0.00,,,0.00,Wunderground v.1.15,2013-04-23 23:13:00,
2013-04-23 19:18:00,54.5,44.9,30.12,ENE,78,0.0,3.0,70,0.00,,,0.00,Wunderground v.1.15,2013-04-23 23:18:00,
2013-04-23 19:23:00,54.2,44.6,30.12,ENE,71,1.0,1.0,70,0.00,,,0.00,Wunderground v.1.15,2013-04-23 23:23:00,
2013-04-23 19:28:00,54.1,44.5,30.13,ESE,108,1.0,2.0,70,0.00,,,0.00,Wunderground v.1.15,2013-04-23 23:28:00,
2013-04-23 19:33:00,53.9,44.7,30.12,East,83,1.0,1.0,71,0.00,,,0.00,Wunderground v.1.15,2013-04-23 23:33:00,
2013-04-23 19:39:00,53.7,44.5,30.12,East,83,0.0,1.0,71,0.00,,,0.00,Wunderground v.1.15,2013-04-23 23:39:00,
2013-04-23 19:44:00,53.5,44.0,30.12,East,83,0.0,1.0,70,0.00,,,0.00,Wunderground v.1.15,2013-04-23 23:44:00,
2013-04-23 19:49:00,53.3,44.1,30.13,East,83,0.0,1.0,71,0.00,,,0.00,Wunderground v.1.15,2013-04-23 23:49:00,
2013-04-23 19:55:00,53.1,43.9,30.13,East,83,0.0,0.0,71,0.00,,,0.00,Wunderground v.1.15,2013-04-23 23:55:00,
2013-04-23 20:00:00,52.8,43.7,30.13,East,83,0.0,0.0,71,0.00,,,0.00,Wunderground v.1.15,2013-04-24 00:00:00,
2013-04-23 20:06:00,52.4,43.6,30.14,East,83,0.0,0.0,72,0.00,,,0.00,Wunderground v.1.15,2013-04-24 00:06:00,
2013-04-23 20:11:00,52.2,43.4,30.14,East,83,0.0,0.0,72,0.00,,,0.00,Wunderground v.1.15,2013-04-24 00:11:00,
2013-04-23 20:16:00,51.8,43.1,30.14,East,83,0.0,0.0,72,0.00,,,0.00,Wunderground v.1.15,2013-04-24 00:16:00,
2013-04-23 20:21:00,51.6,43.2,30.14,East,83,0.0,0.0,73,0.00,,,0.00,Wunderground v.1.15,2013-04-24 00:21:00,
2013-04-23 20:27:00,51.3,42.9,30.14,East,83,0.0,0.0,73,0.00,,,0.00,Wunderground v.1.15,2013-04-24 00:27:00,
2013-04-23 20:32:00,51.1,43.1,30.14,East,83,0.0,0.0,74,0.00,,,0.00,Wunderground v.1.15,2013-04-24 00:32:00,
2013-04-23 20:37:00,51.0,43.0,30.14,East,83,0.0,0.0,74,0.00,,,0.00,Wunderground v.1.15,2013-04-24 00:37:00,
2013-04-23 20:43:00,50.8,42.8,30.14,East,83,0.0,0.0,74,0.00,,,0.00,Wunderground v.1.15,2013-04-24 00:43:00,
2013-04-23 20:49:00,50.6,42.6,30.14,East,83,0.0,0.0,74,0.00,,,0.00,Wunderground v.1.15,2013-04-24 00:49:00,
2013-04-23 20:54:00,50.3,42.7,30.13,East,83,0.0,0.0,75,0.00,,,0.00,Wunderground v.1.15,2013-04-24 00:54:00,
2013-04-23 21:00:00,50.0,42.7,30.13,East,83,0.0,0.0,76,0.00,,,0.00,Wunderground v.1.15,2013-04-24 01:00:00,
2013-04-23 21:06:00,49.8,42.9,30.13,East,83,0.0,0.0,77,0.00,,,0.00,Wunderground v.1.15,2013-04-24 01:06:00,
2013-04-23 21:12:00,49.5,42.6,30.13,East,83,0.0,0.0,77,0.00,,,0.00,Wunderground v.1.15,2013-04-24 01:12:00,
2013-04-23 21:17:00,49.3,42.7,30.13,East,83,0.0,0.0,78,0.00,,,0.00,Wunderground v.1.15,2013-04-24 01:17:00,
2013-04-23 21:23:00,49.5,42.9,30.13,East,83,0.0,0.0,78,0.00,,,0.00,Wunderground v.1.15,2013-04-24 01:23:00,
2013-04-23 21:28:00,49.7,42.8,30.13,East,83,0.0,0.0,77,0.00,,,0.00,Wunderground v.1.15,2013-04-24 01:28:00,
2013-04-23 21:33:00,49.7,42.8,30.13,East,83,0.0,0.0,77,0.00,,,0.00,Wunderground v.1.15,2013-04-24 01:33:00,
2013-04-23 21:39:00,49.6,42.7,30.13,East,83,0.0,0.0,77,0.00,,,0.00,Wunderground v.1.15,2013-04-24 01:39:00,
2013-04-23 21:44:00,49.4,42.8,30.13,East,83,0.0,0.0,78,0.00,,,0.00,Wunderground v.1.15,2013-04-24 01:44:00,
2013-04-23 21:49:00,49.3,42.7,30.13,East,83,0.0,0.0,78,0.00,,,0.00,Wunderground v.1.15,2013-04-24 01:49:00,
2013-04-23 21:55:00,49.0,42.4,30.13,East,83,0.0,0.0,78,0.00,,,0.00,Wunderground v.1.15,2013-04-24 01:55:00,
2013-04-23 22:00:00,48.9,42.7,30.13,East,83,0.0,0.0,79,0.00,,,0.00,Wunderground v.1.15,2013-04-24 02:00:00,
2013-04-23 22:06:00,48.7,42.5,30.13,East,83,0.0,0.0,79,0.00,,,0.00,Wunderground v.1.15,2013-04-24 02:06:00,
2013-04-23 22:11:00,48.7,42.5,30.12,East,83,0.0,0.0,79,0.00,,,0.00,Wunderground v.1.15,2013-04-24 02:11:00,
2013-04-23 22:17:00,48.5,42.6,30.12,East,83,0.0,0.0,80,0.00,,,0.00,Wunderground v.1.15,2013-04-24 02:17:00,
2013-04-23 22:22:00,48.5,42.6,30.12,East,83,0.0,0.0,80,0.00,,,0.00,Wunderground v.1.15,2013-04-24 02:22:00,
2013-04-23 22:28:00,48.4,42.5,30.12,East,83,0.0,0.0,80,0.00,,,0.00,Wunderground v.1.15,2013-04-24 02:28:00,
2013-04-23 22:33:00,48.4,42.5,30.12,East,83,0.0,0.0,80,0.00,,,0.00,Wunderground v.1.15,2013-04-24 02:33:00,
2013-04-23 22:38:00,48.2,42.3,30.11,East,83,0.0,0.0,80,0.00,,,0.00,Wunderground v.1.15,2013-04-24 02:38:00,
2013-04-23 22:45:00,48.1,42.2,30.11,East,83,0.0,0.0,80,0.00,,,0.00,Wunderground v.1.15,2013-04-24 02:45:00,
2013-04-23 22:51:00,48.0,42.1,30.11,East,83,0.0,0.0,80,0.00,,,0.00,Wunderground v.1.15,2013-04-24 02:51:00,
2013-04-23 22:56:00,47.9,42.3,30.10,East,83,0.0,0.0,81,0.00,,,0.00,Wunderground v.1.15,2013-04-24 02:56:00,
2013-04-23 23:01:00,47.8,42.3,30.10,East,83,0.0,0.0,81,0.00,,,0.00,Wunderground v.1.15,2013-04-24 03:01:00,
2013-04-23 23:07:00,47.8,42.3,30.10,East,83,0.0,0.0,81,0.00,,,0.00,Wunderground v.1.15,2013-04-24 03:07:00,
2013-04-23 23:12:00,47.8,42.3,30.10,East,83,0.0,1.0,81,0.00,,,0.00,Wunderground v.1.15,2013-04-24 03:12:00,
2013-04-23 23:18:00,47.7,42.2,30.09,East,83,0.0,1.0,81,0.00,,,0.00,Wunderground v.1.15,2013-04-24 03:18:00,
2013-04-23 23:24:00,47.6,42.1,30.09,East,83,0.0,0.0,81,0.00,,,0.00,Wunderground v.1.15,2013-04-24 03:24:00,
2013-04-23 23:30:00,47.5,42.3,30.09,East,83,0.0,0.0,82,0.00,,,0.00,Wunderground v.1.15,2013-04-24 03:30:00,
2013-04-23 23:36:00,47.5,42.3,30.09,East,83,0.0,0.0,82,0.00,,,0.00,Wunderground v.1.15,2013-04-24 03:36:00,
2013-04-23 23:42:00,47.4,42.2,30.09,East,83,0.0,0.0,82,0.00,,,0.00,Wunderground v.1.15,2013-04-24 03:42:00,
2013-04-23 23:47:00,47.3,42.1,30.09,East,83,0.0,1.0,82,0.00,,,0.00,Wunderground v.1.15,2013-04-24 03:47:00,
2013-04-23 23:52:00,47.2,42.3,30.09,East,83,0.0,0.0,83,0.00,,,0.00,Wunderground v.1.15,2013-04-24 03:52:00,
2013-04-23 23:58:00,46.9,42.0,30.09,East,83,0.0,0.0,83,0.00,,,0.00,Wunderground v.1.15,2013-04-24 03:58:00,